Location: Newark
(29.9790°N, 31.1340°E)
Time: 11:20:17
(UTC+00:00)

Transit 2A Rocket - Pass Details

Date: 25 January 2020
Orbit: 591 x 912 km, 66.7° (Epoch: 25 February)

Event Time Altitude Azimuth Distance (km) Brightness Sun altitude
Rises 12:53:05 0° 329° (NNW) 3,104 8.0 26.9°
Reaches altitude 10° 12:55:22 10° 325° (NW) 2,230 7.4 26.5°
Maximum altitude 13:00:22 57° 248° (WSW) 913 6.5 25.8°
Drops below altitude 10° 13:05:50 10° 170° (S) 2,429 8.2 24.9°
Sets 13:08:25 0° 167° (SSE) 3,404 8.7 24.5°
